Hourly Data Report for September 27, 2017

All times are specified in Local Standard Time (LST). Add 1 hour to adjust for Daylight Saving Time where and when it is observed.

MONCTON INTL A
NEW BRUNSWICK

46°06'44.000" N
64°40'43.000" W
70.70 m
8103201
71705
YQM

Download Data

Hourly Data (September 2017)
Hourly Data Report for September 27, 2017
Temp Definition
°C
Dew Point Temp Definition
°C
Rel Hum Definition
%
Wind Dir Definition
10's deg

Wind Spd Definition
km/h
Visibility Definition
km
Stn Press Definition
kPa
Hmdx Definition


Wind Chill Definition


Weather Definition


TIME
00:00 Legend Double Dagger 14.1 12.3 89 5 17 24.1 100.90     LegendNANA
01:00 Legend Double Dagger 13.7 11.9 89 6 12 24.1 100.90     LegendNANA
02:00 Legend Double Dagger 13.5 12.0 90 4 9 24.1 100.89     Mostly Cloudy
03:00 Legend Double Dagger 13.6 11.9 90 6 12 24.1 100.82     LegendNANA
04:00 Legend Double Dagger 13.7 12.0 90 7 17 24.1 100.80     LegendNANA
05:00 Legend Double Dagger 13.6 12.2 92 5 13 24.1 100.80     Cloudy
06:00 Legend Double Dagger 13.4 12.2 92 8 17 24.1 100.74     LegendNANA
07:00 Legend Double Dagger 13.5 12.3 92 10 18 24.1 100.69     LegendNANA
08:00 Legend Double Dagger 14.0 12.4 90 12 15 24.1 100.60     Cloudy
09:00 Legend Double Dagger 14.5 12.7 89 12 14 24.1 100.60     LegendNANA
10:00 Legend Double Dagger 16.0 13.7 86 15 16 24.1 100.49     LegendNANA
11:00 Legend Double Dagger 17.5 15.5 88 17 18 24.1 100.40     Cloudy
12:00 Legend Double Dagger 18.9 16.4 86 16 21 24.1 100.35     LegendNANA
13:00 Legend Double Dagger 21.0 17.9 82 19 17 24.1 100.24 27   LegendNANA
14:00 Legend Double Dagger 21.5 18.2 81 19 20 24.1 100.16 28   Mostly Cloudy
15:00 Legend Double Dagger 22.4 19.1 81 18 13 24.1 100.09 29   LegendNANA
16:00 Legend Double Dagger 22.6 18.1 75 19 24 24.1 100.03 29   LegendNANA
17:00 Legend Double Dagger 22.1 18.6 80 20 24 24.1 99.96 29   Mostly Cloudy
18:00 Legend Double Dagger 20.8 18.3 85 19 20 24.1 99.89 27   LegendNANA
19:00 Legend Double Dagger 19.6 18.0 90 18 12 24.1 99.89     LegendNANA
20:00 Legend Double Dagger 18.1 17.3 95 18 13 24.1 99.81     Mainly Clear
21:00 Legend Double Dagger 18.0 17.0 94 20 14 24.1 99.74     LegendNANA
22:00 Legend Double Dagger 20.4 18.5 89 20 21 24.1 99.66 27   LegendNANA
23:00 Legend Double Dagger 21.8 19.4 86 22 23 24.1 99.64 29   Mostly Cloudy

Notes on Data Quality.

Legend

  • E = Estimated
  • M = Missing
  • NA = Not Available
  • ‡ = Partner data that is not subject to review by the National Climate Archives
Date modified: